Find STARLINK-37240

NORAD ID: 70619 Constellation: starlink operational
LEOCIRCULARRETROGRADE

Live-Position

3D-Globus wird geladen...

Über STARLINK-37240

Beschreibung wird geladen...

Nächste Überflüge

Passes for default location (London). Set your location on the main map for personalized predictions.

Höhenverlauf

Loading altitude history...

Zweizeiliger Elementsatz

1 70619C 26101G 26126.32062500 .00348490 00000+0 54779-3 0 1262
2 70619 97.2849 339.8620 0009887 259.7298 38.3347 16.03660108 19
Epoch: 6. Mai 2026 • Age: 20 hours